Location: Alafon
(8.4500°N, 4.2333°E)
Time: 03:58:54
(UTC+00:00)

Vanguard 2 - Pass Details

Date: 07 August 2021
Orbit: 552 x 2937 km, 32.9° (Epoch: 21 September)

Event Time Altitude Azimuth Distance (km) Brightness Sun altitude
Rises 08:13:13 0° 315° (NW) 3,314 10.5 36.9°
Reaches altitude 10° 08:15:21 10° 321° (NW) 2,583 10.1 37.4°
Maximum altitude 08:21:24 50° 36° (NE) 1,543 10.3 38.9°
Drops below altitude 10° 08:31:25 10° 109° (ESE) 4,220 12.1 41.3°
Sets 08:35:53 0° 113° (ESE) 5,619 12.5 42.3°
